Terminal Aerodrome Forecast
Issued by NWS

Home | Current Version | Previous Version | Text Only | Print | Product List | Glossary On
Versions: 1 2 3 4 5 6 7 8 9 10 11 12 13 14 15 16 17 18 19 20 21 22 23 24 25 26 27 28 29 30
000
FTUS45 KBOI 030521
TAFJER
TAF
KJER 030521Z 0306/0406 25008KT P6SM BKN100
     FM030630 25020G30KT P6SM SCT070 SCT150=

USA.gov is the U.S. government's official web portal to all federal, state and local government web resources and services.